Year,Month,Day,Hour,Minute,Value (Times are PST for temperature in C)
2007,09,22,00,00,11.80
2007,09,22,00,01,11.80
2007,09,22,00,02,11.90
2007,09,22,00,03,12.00
2007,09,22,00,04,12.10
2007,09,22,00,05,12.20
2007,09,22,00,06,12.20
2007,09,22,00,07,12.30
2007,09,22,00,08,12.30
2007,09,22,00,09,12.40
2007,09,22,00,10,12.40
2007,09,22,00,11,12.50
2007,09,22,00,12,12.60
2007,09,22,00,13,12.70
2007,09,22,00,14,12.70
2007,09,22,00,15,12.80
2007,09,22,00,16,12.80
2007,09,22,00,17,12.80
2007,09,22,00,18,12.70
2007,09,22,00,19,12.60
2007,09,22,00,20,12.40
2007,09,22,00,21,12.40
2007,09,22,00,22,12.40
2007,09,22,00,23,12.50
2007,09,22,00,24,12.60
2007,09,22,00,25,12.60
2007,09,22,00,26,12.60
2007,09,22,00,27,12.60
2007,09,22,00,28,12.60
2007,09,22,00,29,12.60
2007,09,22,00,30,12.60
2007,09,22,00,31,12.70
2007,09,22,00,32,12.70
2007,09,22,00,33,12.70
2007,09,22,00,34,12.70
2007,09,22,00,35,12.70
2007,09,22,00,36,12.70
2007,09,22,00,37,12.70
2007,09,22,00,38,12.70
2007,09,22,00,39,12.70
2007,09,22,00,40,12.70
2007,09,22,00,41,12.70
2007,09,22,00,42,12.70
2007,09,22,00,43,12.70
2007,09,22,00,44,12.70
2007,09,22,00,45,12.60
2007,09,22,00,46,12.60
2007,09,22,00,47,12.60
2007,09,22,00,48,12.60
2007,09,22,00,49,12.60
2007,09,22,00,50,12.60
2007,09,22,00,51,12.50
2007,09,22,00,52,12.50
2007,09,22,00,53,12.40
2007,09,22,00,54,12.40
2007,09,22,00,55,12.40
2007,09,22,00,56,12.40
2007,09,22,00,57,12.40
2007,09,22,00,58,12.40
2007,09,22,00,59,12.40
2007,09,22,01,00,12.40
2007,09,22,01,01,12.40
2007,09,22,01,02,12.30
2007,09,22,01,03,12.30
2007,09,22,01,04,12.30
2007,09,22,01,05,12.30
2007,09,22,01,06,12.30
2007,09,22,01,07,12.30
2007,09,22,01,08,12.30
2007,09,22,01,09,12.30
2007,09,22,01,10,12.30
2007,09,22,01,11,12.30
2007,09,22,01,12,12.30
2007,09,22,01,13,12.30
2007,09,22,01,14,12.30
2007,09,22,01,15,12.30
2007,09,22,01,16,12.30
2007,09,22,01,17,12.30
2007,09,22,01,18,12.30
2007,09,22,01,19,12.30
2007,09,22,01,20,12.30
2007,09,22,01,21,12.30
2007,09,22,01,22,12.30
2007,09,22,01,23,12.30
2007,09,22,01,24,12.30
2007,09,22,01,25,12.20
2007,09,22,01,26,12.20
2007,09,22,01,27,12.20
2007,09,22,01,28,12.20
2007,09,22,01,29,12.20
2007,09,22,01,30,12.20
2007,09,22,01,31,12.10
2007,09,22,01,32,12.10
2007,09,22,01,33,12.10
2007,09,22,01,34,12.10
2007,09,22,01,35,12.10
2007,09,22,01,36,12.10
2007,09,22,01,37,12.00
2007,09,22,01,38,12.00
2007,09,22,01,39,12.00
2007,09,22,01,40,12.00
2007,09,22,01,41,12.00
2007,09,22,01,42,11.90
2007,09,22,01,43,11.90
2007,09,22,01,44,11.90
2007,09,22,01,45,11.90
2007,09,22,01,46,11.90
2007,09,22,01,47,11.80
2007,09,22,01,48,11.80
2007,09,22,01,49,11.80
2007,09,22,01,50,11.80
2007,09,22,01,51,11.80
2007,09,22,01,52,11.80
2007,09,22,01,53,11.80
2007,09,22,01,54,11.80
2007,09,22,01,55,11.80
2007,09,22,01,56,11.80
2007,09,22,01,57,11.80
2007,09,22,01,58,11.80
2007,09,22,01,59,11.80
2007,09,22,02,00,11.80
2007,09,22,02,01,11.80
2007,09,22,02,02,11.80
2007,09,22,02,03,11.80
2007,09,22,02,04,11.80
2007,09,22,02,05,11.80
2007,09,22,02,06,11.80
2007,09,22,02,07,11.80
2007,09,22,02,08,11.80
2007,09,22,02,09,11.80
2007,09,22,02,10,11.80
2007,09,22,02,11,11.80
2007,09,22,02,12,11.90
2007,09,22,02,13,11.90
2007,09,22,02,14,11.90
2007,09,22,02,15,11.90
2007,09,22,02,16,12.00
2007,09,22,02,17,12.00
2007,09,22,02,18,12.00
2007,09,22,02,19,12.00
2007,09,22,02,20,12.00
2007,09,22,02,21,12.10
2007,09,22,02,22,12.10
2007,09,22,02,23,12.10
2007,09,22,02,24,12.10
2007,09,22,02,25,12.10
2007,09,22,02,26,12.10
2007,09,22,02,27,12.10
2007,09,22,02,28,12.20
2007,09,22,02,29,12.10
2007,09,22,02,30,12.20
2007,09,22,02,31,12.20
2007,09,22,02,32,12.20
2007,09,22,02,33,12.20
2007,09,22,02,34,12.20
2007,09,22,02,35,12.20
2007,09,22,02,36,12.20
2007,09,22,02,37,12.20
2007,09,22,02,38,12.20
2007,09,22,02,39,12.20
2007,09,22,02,40,12.20
2007,09,22,02,41,12.20
2007,09,22,02,42,12.20
2007,09,22,02,43,12.20
2007,09,22,02,44,12.20
2007,09,22,02,45,12.20
2007,09,22,02,46,12.20
2007,09,22,02,47,12.20
2007,09,22,02,48,12.20
2007,09,22,02,49,12.20
2007,09,22,02,50,12.20
2007,09,22,02,51,12.20
2007,09,22,02,52,12.20
2007,09,22,02,53,12.20
2007,09,22,02,54,12.20
2007,09,22,02,55,12.20
2007,09,22,02,56,12.20
2007,09,22,02,57,12.20
2007,09,22,02,58,12.20
2007,09,22,02,59,12.20
2007,09,22,03,00,12.20
2007,09,22,03,01,12.20
2007,09,22,03,02,12.10
2007,09,22,03,03,12.10
2007,09,22,03,04,12.10
2007,09,22,03,05,12.10
2007,09,22,03,06,12.10
2007,09,22,03,07,12.10
2007,09,22,03,08,12.10
2007,09,22,03,09,12.10
2007,09,22,03,10,12.10
2007,09,22,03,11,12.00
2007,09,22,03,12,12.00
2007,09,22,03,13,12.00
2007,09,22,03,14,12.00
2007,09,22,03,15,12.00
2007,09,22,03,16,12.00
2007,09,22,03,17,12.00
2007,09,22,03,18,12.00
2007,09,22,03,19,12.00
2007,09,22,03,20,12.00
2007,09,22,03,21,12.00
2007,09,22,03,22,12.00
2007,09,22,03,23,12.10
2007,09,22,03,24,12.10
2007,09,22,03,25,12.10
2007,09,22,03,26,12.20
2007,09,22,03,27,12.20
2007,09,22,03,28,12.20
2007,09,22,03,29,12.20
2007,09,22,03,30,12.20
2007,09,22,03,31,12.20
2007,09,22,03,32,12.20
2007,09,22,03,33,12.20
2007,09,22,03,34,12.20
2007,09,22,03,35,12.20
2007,09,22,03,36,12.20
2007,09,22,03,37,12.20
2007,09,22,03,38,12.20
2007,09,22,03,39,12.20
2007,09,22,03,40,12.10
2007,09,22,03,41,12.10
2007,09,22,03,42,12.10
2007,09,22,03,43,12.00
2007,09,22,03,44,12.00
2007,09,22,03,45,12.00
2007,09,22,03,46,11.90
2007,09,22,03,47,11.90
2007,09,22,03,48,11.90
2007,09,22,03,49,11.90
2007,09,22,03,50,11.80
2007,09,22,03,51,11.80
2007,09,22,03,52,11.80
2007,09,22,03,53,11.80
2007,09,22,03,54,11.80
2007,09,22,03,55,11.80
2007,09,22,03,56,11.80
2007,09,22,03,57,11.80
2007,09,22,03,58,11.90
2007,09,22,03,59,11.80
2007,09,22,04,00,11.90
2007,09,22,04,01,11.90
2007,09,22,04,02,11.80
2007,09,22,04,03,11.80
2007,09,22,04,04,11.80
2007,09,22,04,05,11.80
2007,09,22,04,06,11.80
2007,09,22,04,07,11.80
2007,09,22,04,08,11.80
2007,09,22,04,09,11.80
2007,09,22,04,10,11.80
2007,09,22,04,11,11.90
2007,09,22,04,12,11.90
2007,09,22,04,13,11.90
2007,09,22,04,14,11.90
2007,09,22,04,15,11.90
2007,09,22,04,16,11.90
2007,09,22,04,17,11.90
2007,09,22,04,18,11.90
2007,09,22,04,19,11.90
2007,09,22,04,20,11.90
2007,09,22,04,21,11.90
2007,09,22,04,22,12.00
2007,09,22,04,23,12.00
2007,09,22,04,24,12.00
2007,09,22,04,25,12.00
2007,09,22,04,26,12.00
2007,09,22,04,27,12.00
2007,09,22,04,28,12.00
2007,09,22,04,29,12.00
2007,09,22,04,30,12.10
2007,09,22,04,31,12.00
2007,09,22,04,32,12.10
2007,09,22,04,33,12.10
2007,09,22,04,34,12.00
2007,09,22,04,35,12.00
2007,09,22,04,36,12.00
2007,09,22,04,37,12.00
2007,09,22,04,38,12.00
2007,09,22,04,39,12.00
2007,09,22,04,40,12.00
2007,09,22,04,41,11.90
2007,09,22,04,42,11.90
2007,09,22,04,43,11.90
2007,09,22,04,44,11.90
2007,09,22,04,45,11.90
2007,09,22,04,46,11.80
2007,09,22,04,47,11.80
2007,09,22,04,48,11.80
2007,09,22,04,49,11.70
2007,09,22,04,50,11.70
2007,09,22,04,51,11.60
2007,09,22,04,52,11.60
2007,09,22,04,53,11.60
2007,09,22,04,54,11.60
2007,09,22,04,55,11.50
2007,09,22,04,56,11.50
2007,09,22,04,57,11.50
2007,09,22,04,58,11.50
2007,09,22,04,59,11.50
2007,09,22,05,00,11.50
2007,09,22,05,01,11.40
2007,09,22,05,02,11.40
2007,09,22,05,03,11.40
2007,09,22,05,04,11.40
2007,09,22,05,05,11.30
2007,09,22,05,06,11.30
2007,09,22,05,07,11.20
2007,09,22,05,08,11.20
2007,09,22,05,09,11.20
2007,09,22,05,10,11.10
2007,09,22,05,11,11.10
2007,09,22,05,12,11.10
2007,09,22,05,13,11.00
2007,09,22,05,14,11.00
2007,09,22,05,15,11.00
2007,09,22,05,16,10.90
2007,09,22,05,17,10.90
2007,09,22,05,18,10.90
2007,09,22,05,19,10.90
2007,09,22,05,20,10.90
2007,09,22,05,21,10.90
2007,09,22,05,22,10.80
2007,09,22,05,23,10.80
2007,09,22,05,24,10.70
2007,09,22,05,25,10.60
2007,09,22,05,26,10.50
2007,09,22,05,27,10.40
2007,09,22,05,28,10.30
2007,09,22,05,29,10.20
2007,09,22,05,30,10.10
2007,09,22,05,31,10.00
2007,09,22,05,32,10.00
2007,09,22,05,33,9.90
2007,09,22,05,34,9.80
2007,09,22,05,35,9.80
2007,09,22,05,36,9.80
2007,09,22,05,37,9.70
2007,09,22,05,38,9.70
2007,09,22,05,39,9.70
2007,09,22,05,40,9.70
2007,09,22,05,41,9.60
2007,09,22,05,42,9.60
2007,09,22,05,43,9.50
2007,09,22,05,44,9.50
2007,09,22,05,45,9.50
2007,09,22,05,46,9.50
2007,09,22,05,47,9.50
2007,09,22,05,48,9.50
2007,09,22,05,49,9.40
2007,09,22,05,50,9.40
2007,09,22,05,51,9.40
2007,09,22,05,52,9.40
2007,09,22,05,53,9.30
2007,09,22,05,54,9.30
2007,09,22,05,55,9.30
2007,09,22,05,56,9.30
2007,09,22,05,57,9.30
2007,09,22,05,58,9.30
2007,09,22,05,59,9.30
2007,09,22,06,00,9.30
2007,09,22,06,01,9.30
2007,09,22,06,02,9.30
2007,09,22,06,03,9.20
2007,09,22,06,04,9.20
2007,09,22,06,05,9.20
2007,09,22,06,06,9.20
2007,09,22,06,07,9.20
2007,09,22,06,08,9.20
2007,09,22,06,09,9.20
2007,09,22,06,10,9.10
2007,09,22,06,11,9.10
2007,09,22,06,12,9.00
2007,09,22,06,13,9.00
2007,09,22,06,14,8.90
2007,09,22,06,15,8.90
2007,09,22,06,16,8.90
2007,09,22,06,17,8.90
2007,09,22,06,18,8.90
2007,09,22,06,19,8.80
2007,09,22,06,20,8.80
2007,09,22,06,21,8.80
2007,09,22,06,22,8.80
2007,09,22,06,23,8.80
2007,09,22,06,24,8.70
2007,09,22,06,25,8.70
2007,09,22,06,26,8.70
2007,09,22,06,27,8.70
2007,09,22,06,28,8.70
2007,09,22,06,29,8.60
2007,09,22,06,30,8.60
2007,09,22,06,31,8.60
2007,09,22,06,32,8.50
2007,09,22,06,33,8.50
2007,09,22,06,34,8.40
2007,09,22,06,35,8.40
2007,09,22,06,36,8.30
2007,09,22,06,37,8.30
2007,09,22,06,38,8.30
2007,09,22,06,39,8.30
2007,09,22,06,40,8.30
2007,09,22,06,41,8.30
2007,09,22,06,42,8.30
2007,09,22,06,43,8.20
2007,09,22,06,44,8.20
2007,09,22,06,45,8.20
2007,09,22,06,46,8.20
2007,09,22,06,47,8.20
2007,09,22,06,48,8.20
2007,09,22,06,49,8.10
2007,09,22,06,50,8.10
2007,09,22,06,51,8.10
2007,09,22,06,52,8.10
2007,09,22,06,53,8.10
2007,09,22,06,54,8.10
2007,09,22,06,55,8.10
2007,09,22,06,56,8.00
2007,09,22,06,57,8.00
2007,09,22,06,58,8.00
2007,09,22,06,59,8.00
2007,09,22,07,00,8.00
2007,09,22,07,01,8.00
2007,09,22,07,02,8.00
2007,09,22,07,03,8.00
2007,09,22,07,04,7.90
2007,09,22,07,05,7.90
2007,09,22,07,06,7.90
2007,09,22,07,07,7.90
2007,09,22,07,08,7.90
2007,09,22,07,09,7.90
2007,09,22,07,10,7.90
2007,09,22,07,11,7.90
2007,09,22,07,12,7.90
2007,09,22,07,13,7.90
2007,09,22,07,14,7.80
2007,09,22,07,15,7.80
2007,09,22,07,16,7.80
2007,09,22,07,17,7.80
2007,09,22,07,18,7.80
2007,09,22,07,19,7.80
2007,09,22,07,20,7.80
2007,09,22,07,21,7.80
2007,09,22,07,22,7.80
2007,09,22,07,23,7.80
2007,09,22,07,24,7.70
2007,09,22,07,25,7.70
2007,09,22,07,26,7.70
2007,09,22,07,27,7.70
2007,09,22,07,28,7.70
2007,09,22,07,29,7.60
2007,09,22,07,30,7.60
2007,09,22,07,31,7.60
2007,09,22,07,32,7.60
2007,09,22,07,33,7.60
2007,09,22,07,34,7.60
2007,09,22,07,35,7.50
2007,09,22,07,36,7.50
2007,09,22,07,37,7.50
2007,09,22,07,38,7.50
2007,09,22,07,39,7.50
2007,09,22,07,40,7.40
2007,09,22,07,41,7.40
2007,09,22,07,42,7.40
2007,09,22,07,43,7.40
2007,09,22,07,44,7.40
2007,09,22,07,45,7.40
2007,09,22,07,46,7.40
2007,09,22,07,47,7.40
2007,09,22,07,48,7.40
2007,09,22,07,49,7.40
2007,09,22,07,50,7.40
2007,09,22,07,51,7.50
2007,09,22,07,52,7.50
2007,09,22,07,53,7.50
2007,09,22,07,54,7.50
2007,09,22,07,55,7.50
2007,09,22,07,56,7.50
2007,09,22,07,57,7.50
2007,09,22,07,58,7.60
2007,09,22,07,59,7.60
2007,09,22,08,00,7.60
2007,09,22,08,01,7.60
2007,09,22,08,02,7.60
2007,09,22,08,03,7.70
2007,09,22,08,04,7.70
2007,09,22,08,05,7.70
2007,09,22,08,06,7.70
2007,09,22,08,07,7.70
2007,09,22,08,08,7.80
2007,09,22,08,09,7.80
2007,09,22,08,10,7.90
2007,09,22,08,11,7.90
2007,09,22,08,12,8.00
2007,09,22,08,13,8.10
2007,09,22,08,14,8.20
2007,09,22,08,15,8.30
2007,09,22,08,16,8.30
2007,09,22,08,17,8.40
2007,09,22,08,18,8.40
2007,09,22,08,19,8.50
2007,09,22,08,20,8.50
2007,09,22,08,21,8.50
2007,09,22,08,22,8.60
2007,09,22,08,23,8.60
2007,09,22,08,24,8.60
2007,09,22,08,25,8.60
2007,09,22,08,26,8.60
2007,09,22,08,27,8.60
2007,09,22,08,28,8.60
2007,09,22,08,29,8.70
2007,09,22,08,30,8.70
2007,09,22,08,31,8.80
2007,09,22,08,32,8.80
2007,09,22,08,33,8.90
2007,09,22,08,34,9.00
2007,09,22,08,35,9.10
2007,09,22,08,36,9.10
2007,09,22,08,37,9.20
2007,09,22,08,38,9.20
2007,09,22,08,39,9.30
2007,09,22,08,40,9.30
2007,09,22,08,41,9.30
2007,09,22,08,42,9.30
2007,09,22,08,43,9.30
2007,09,22,08,44,9.30
2007,09,22,08,45,9.30
2007,09,22,08,46,9.30
2007,09,22,08,47,9.40
2007,09,22,08,48,9.40
2007,09,22,08,49,9.40
2007,09,22,08,50,9.40
2007,09,22,08,51,9.40
2007,09,22,08,52,9.40
2007,09,22,08,53,9.40
2007,09,22,08,54,9.40
2007,09,22,08,55,9.50
2007,09,22,08,56,9.50
2007,09,22,08,57,9.60
2007,09,22,08,58,9.60
2007,09,22,08,59,9.70
2007,09,22,09,00,9.70
2007,09,22,09,01,9.80
2007,09,22,09,02,9.80
2007,09,22,09,03,9.90
2007,09,22,09,04,10.00
2007,09,22,09,05,10.00
2007,09,22,09,06,10.10
2007,09,22,09,07,10.20
2007,09,22,09,08,10.30
2007,09,22,09,09,10.30
2007,09,22,09,10,10.40
2007,09,22,09,11,10.50
2007,09,22,09,12,10.60
2007,09,22,09,13,10.70
2007,09,22,09,14,10.80
2007,09,22,09,15,10.80
2007,09,22,09,16,10.80
2007,09,22,09,17,10.90
2007,09,22,09,18,11.00
2007,09,22,09,19,11.10
2007,09,22,09,20,11.20
2007,09,22,09,21,11.30
2007,09,22,09,22,11.50
2007,09,22,09,23,11.60
2007,09,22,09,24,11.80
2007,09,22,09,25,11.90
2007,09,22,09,26,12.00
2007,09,22,09,27,12.00
2007,09,22,09,28,12.10
2007,09,22,09,29,12.10
2007,09,22,09,30,12.10
2007,09,22,09,31,12.20
2007,09,22,09,32,12.20
2007,09,22,09,33,12.20
2007,09,22,09,34,12.20
2007,09,22,09,35,12.20
2007,09,22,09,36,12.20
2007,09,22,09,37,12.20
2007,09,22,09,38,12.20
2007,09,22,09,39,12.20
2007,09,22,09,40,12.30
2007,09,22,09,41,12.30
2007,09,22,09,42,12.40
2007,09,22,09,43,12.40
2007,09,22,09,44,12.50
2007,09,22,09,45,12.60
2007,09,22,09,46,12.60
2007,09,22,09,47,12.70
2007,09,22,09,48,12.70
2007,09,22,09,49,12.80
2007,09,22,09,50,12.80
2007,09,22,09,51,12.80
2007,09,22,09,52,12.90
2007,09,22,09,53,12.90
2007,09,22,09,54,12.90
2007,09,22,09,55,12.90
2007,09,22,09,56,13.00
2007,09,22,09,57,13.00
2007,09,22,09,58,13.10
2007,09,22,09,59,13.10
2007,09,22,10,00,13.10
2007,09,22,10,01,13.20
2007,09,22,10,02,13.20
2007,09,22,10,03,13.20
2007,09,22,10,04,13.20
2007,09,22,10,05,13.20
2007,09,22,10,06,13.20
2007,09,22,10,07,13.20
2007,09,22,10,08,13.20
2007,09,22,10,09,13.20
2007,09,22,10,10,13.20
2007,09,22,10,11,13.20
2007,09,22,10,12,13.20
2007,09,22,10,13,13.20
2007,09,22,10,14,13.20
2007,09,22,10,15,13.20
2007,09,22,10,16,13.20
2007,09,22,10,17,13.20
2007,09,22,10,18,13.30
2007,09,22,10,19,13.30
2007,09,22,10,20,13.30
2007,09,22,10,21,13.30
2007,09,22,10,22,13.30
2007,09,22,10,23,13.30
2007,09,22,10,24,13.30
2007,09,22,10,25,13.40
2007,09,22,10,26,13.40
2007,09,22,10,27,13.40
2007,09,22,10,28,13.40
2007,09,22,10,29,13.40
2007,09,22,10,30,13.50
2007,09,22,10,31,13.50
2007,09,22,10,32,13.50
2007,09,22,10,33,13.50
2007,09,22,10,34,13.60
2007,09,22,10,35,13.60
2007,09,22,10,36,13.60
2007,09,22,10,37,13.70
2007,09,22,10,38,13.70
2007,09,22,10,39,13.80
2007,09,22,10,40,13.80
2007,09,22,10,41,13.90
2007,09,22,10,42,13.90
2007,09,22,10,43,13.90
2007,09,22,10,44,13.90
2007,09,22,10,45,14.00
2007,09,22,10,46,14.00
2007,09,22,10,47,14.00
2007,09,22,10,48,14.10
2007,09,22,10,49,14.10
2007,09,22,10,50,14.20
2007,09,22,10,51,14.20
2007,09,22,10,52,14.20
2007,09,22,10,53,14.30
2007,09,22,10,54,14.30
2007,09,22,10,55,14.40
2007,09,22,10,56,14.40
2007,09,22,10,57,14.40
2007,09,22,10,58,14.50
2007,09,22,10,59,14.50
2007,09,22,11,00,14.50
2007,09,22,11,01,14.50
2007,09,22,11,02,14.40
2007,09,22,11,03,14.40
2007,09,22,11,04,14.30
2007,09,22,11,05,14.30
2007,09,22,11,06,14.30
2007,09,22,11,07,14.30
2007,09,22,11,08,14.30
2007,09,22,11,09,14.30
2007,09,22,11,10,14.40
2007,09,22,11,11,14.40
2007,09,22,11,12,14.50
2007,09,22,11,13,14.60
2007,09,22,11,14,14.70
2007,09,22,11,15,14.80
2007,09,22,11,16,14.90
2007,09,22,11,17,15.00
2007,09,22,11,18,15.00
2007,09,22,11,19,15.00
2007,09,22,11,20,15.00
2007,09,22,11,21,15.00
2007,09,22,11,22,15.00
2007,09,22,11,23,15.10
2007,09,22,11,24,15.20
2007,09,22,11,25,15.20
2007,09,22,11,26,15.30
2007,09,22,11,27,15.30
2007,09,22,11,28,15.40
2007,09,22,11,29,15.30
2007,09,22,11,30,15.20
2007,09,22,11,31,15.00
2007,09,22,11,32,15.00
2007,09,22,11,33,15.00
2007,09,22,11,34,14.90
2007,09,22,11,35,14.80
2007,09,22,11,36,14.70
2007,09,22,11,37,14.50
2007,09,22,11,38,14.50
2007,09,22,11,39,14.40
2007,09,22,11,40,14.40
2007,09,22,11,41,14.30
2007,09,22,11,42,14.30
2007,09,22,11,43,14.20
2007,09,22,11,44,14.20
2007,09,22,11,45,14.20
2007,09,22,11,46,14.20
2007,09,22,11,47,14.20
2007,09,22,11,48,14.20
2007,09,22,11,49,14.20
2007,09,22,11,50,14.20
2007,09,22,11,51,14.20
2007,09,22,11,52,14.20
2007,09,22,11,53,14.20
2007,09,22,11,54,14.20
2007,09,22,11,55,14.20
2007,09,22,11,56,14.20
2007,09,22,11,57,14.30
2007,09,22,11,58,14.30
2007,09,22,11,59,14.30
2007,09,22,12,00,14.30
2007,09,22,12,01,14.30
2007,09,22,12,02,14.30
2007,09,22,12,03,14.30
2007,09,22,12,04,14.30
2007,09,22,12,05,14.20
2007,09,22,12,06,14.20
2007,09,22,12,07,14.30
2007,09,22,12,08,14.30
2007,09,22,12,09,14.30
2007,09,22,12,10,14.30
2007,09,22,12,11,14.30
2007,09,22,12,12,14.30
2007,09,22,12,13,14.30
2007,09,22,12,14,14.30
2007,09,22,12,15,14.30
2007,09,22,12,16,14.30
2007,09,22,12,17,14.30
2007,09,22,12,18,14.30
2007,09,22,12,19,14.30
2007,09,22,12,20,14.30
2007,09,22,12,21,14.40
2007,09,22,12,22,14.40
2007,09,22,12,23,14.40
2007,09,22,12,24,14.40
2007,09,22,12,25,14.40
2007,09,22,12,26,14.40
2007,09,22,12,27,14.40
2007,09,22,12,28,14.50
2007,09,22,12,29,14.70
2007,09,22,12,30,14.80
2007,09,22,12,31,15.00
2007,09,22,12,32,15.00
2007,09,22,12,33,15.00
2007,09,22,12,34,15.00
2007,09,22,12,35,15.20
2007,09,22,12,36,15.20
2007,09,22,12,37,15.30
2007,09,22,12,38,15.30
2007,09,22,12,39,15.30
2007,09,22,12,40,15.30
2007,09,22,12,41,15.30
2007,09,22,12,42,15.30
2007,09,22,12,43,15.30
2007,09,22,12,44,15.30
2007,09,22,12,45,15.30
2007,09,22,12,46,15.20
2007,09,22,12,47,15.20
2007,09,22,12,48,15.20
2007,09,22,12,49,15.20
2007,09,22,12,50,15.20
2007,09,22,12,51,15.20
2007,09,22,12,52,15.10
2007,09,22,12,53,15.00
2007,09,22,12,54,15.00
2007,09,22,12,55,15.00
2007,09,22,12,56,15.00
2007,09,22,12,57,15.00
2007,09,22,12,58,15.00
2007,09,22,12,59,15.00
2007,09,22,13,00,15.20
2007,09,22,13,01,15.30
2007,09,22,13,02,15.30
2007,09,22,13,03,15.30
2007,09,22,13,04,15.30
2007,09,22,13,05,15.20
2007,09,22,13,06,15.20
2007,09,22,13,07,15.00
2007,09,22,13,08,15.00
2007,09,22,13,09,15.00
2007,09,22,13,10,15.00
2007,09,22,13,11,15.00
2007,09,22,13,12,15.00
2007,09,22,13,13,15.00
2007,09,22,13,14,15.00
2007,09,22,13,15,14.90
2007,09,22,13,16,14.70
2007,09,22,13,17,14.60
2007,09,22,13,18,14.40
2007,09,22,13,19,14.30
2007,09,22,13,20,14.20
2007,09,22,13,21,14.20
2007,09,22,13,22,14.20
2007,09,22,13,23,14.20
2007,09,22,13,24,14.20
2007,09,22,13,25,14.20
2007,09,22,13,26,14.20
2007,09,22,13,27,14.20
2007,09,22,13,28,14.20
2007,09,22,13,29,14.30
2007,09,22,13,30,14.30
2007,09,22,13,31,14.30
2007,09,22,13,32,14.40
2007,09,22,13,33,14.40
2007,09,22,13,34,14.50
2007,09,22,13,35,14.60
2007,09,22,13,36,14.60
2007,09,22,13,37,14.70
2007,09,22,13,38,14.80
2007,09,22,13,39,15.00
2007,09,22,13,40,15.00
2007,09,22,13,41,15.20
2007,09,22,13,42,15.40
2007,09,22,13,43,15.50
2007,09,22,13,44,15.60
2007,09,22,13,45,15.60
2007,09,22,13,46,15.70
2007,09,22,13,47,15.70
2007,09,22,13,48,15.70
2007,09,22,13,49,15.70
2007,09,22,13,50,15.80
2007,09,22,13,51,15.80
2007,09,22,13,52,15.80
2007,09,22,13,53,15.70
2007,09,22,13,54,15.80
2007,09,22,13,55,15.80
2007,09,22,13,56,15.70
2007,09,22,13,57,15.70
2007,09,22,13,58,15.60
2007,09,22,13,59,15.60
2007,09,22,14,00,15.60
2007,09,22,14,01,15.60
2007,09,22,14,02,15.50
2007,09,22,14,03,15.40
2007,09,22,14,04,15.40
2007,09,22,14,05,15.50
2007,09,22,14,06,15.40
2007,09,22,14,07,15.50
2007,09,22,14,08,15.50
2007,09,22,14,09,15.60
2007,09,22,14,10,15.50
2007,09,22,14,11,15.50
2007,09,22,14,12,15.60
2007,09,22,14,13,15.50
2007,09,22,14,14,15.50
2007,09,22,14,15,15.40
2007,09,22,14,16,15.40
2007,09,22,14,17,15.50
2007,09,22,14,18,15.50
2007,09,22,14,19,15.50
2007,09,22,14,20,15.40
2007,09,22,14,21,15.40
2007,09,22,14,22,15.40
2007,09,22,14,23,15.40
2007,09,22,14,24,15.40
2007,09,22,14,25,15.50
2007,09,22,14,26,15.60
2007,09,22,14,27,15.70
2007,09,22,14,28,15.80
2007,09,22,14,29,15.80
2007,09,22,14,30,15.80
2007,09,22,14,31,15.70
2007,09,22,14,32,15.70
2007,09,22,14,33,15.80
2007,09,22,14,34,15.90
2007,09,22,14,35,15.90
2007,09,22,14,36,15.90
2007,09,22,14,37,15.90
2007,09,22,14,38,15.80
2007,09,22,14,39,15.80
2007,09,22,14,40,15.70
2007,09,22,14,41,15.70
2007,09,22,14,42,15.70
2007,09,22,14,43,15.60
2007,09,22,14,44,15.70
2007,09,22,14,45,15.70
2007,09,22,14,46,15.80
2007,09,22,14,47,15.80
2007,09,22,14,48,15.80
2007,09,22,14,49,15.90
2007,09,22,14,50,15.90
2007,09,22,14,51,15.90
2007,09,22,14,52,16.00
2007,09,22,14,53,16.10
2007,09,22,14,54,16.10
2007,09,22,14,55,16.10
2007,09,22,14,56,16.00
2007,09,22,14,57,15.90
2007,09,22,14,58,15.80
2007,09,22,14,59,15.60
2007,09,22,15,00,15.50
2007,09,22,15,01,15.30
2007,09,22,15,02,15.10
2007,09,22,15,03,15.00
2007,09,22,15,04,15.00
2007,09,22,15,05,14.90
2007,09,22,15,06,14.80
2007,09,22,15,07,14.70
2007,09,22,15,08,14.70
2007,09,22,15,09,14.60
2007,09,22,15,10,14.60
2007,09,22,15,11,14.60
2007,09,22,15,12,14.60
2007,09,22,15,13,14.60
2007,09,22,15,14,14.60
2007,09,22,15,15,14.60
2007,09,22,15,16,14.50
2007,09,22,15,17,14.40
2007,09,22,15,18,14.30
2007,09,22,15,19,14.20
2007,09,22,15,20,14.10
2007,09,22,15,21,14.10
2007,09,22,15,22,14.10
2007,09,22,15,23,14.00
2007,09,22,15,24,14.00
2007,09,22,15,25,14.00
2007,09,22,15,26,13.90
2007,09,22,15,27,13.90
2007,09,22,15,28,13.90
2007,09,22,15,29,13.90
2007,09,22,15,30,13.90
2007,09,22,15,31,13.80
2007,09,22,15,32,13.80
2007,09,22,15,33,13.80
2007,09,22,15,34,13.80
2007,09,22,15,35,13.80
2007,09,22,15,36,13.70
2007,09,22,15,37,13.70
2007,09,22,15,38,13.60
2007,09,22,15,39,13.60
2007,09,22,15,40,13.60
2007,09,22,15,41,13.70
2007,09,22,15,42,13.70
2007,09,22,15,43,13.70
2007,09,22,15,44,13.80
2007,09,22,15,45,13.80
2007,09,22,15,46,13.90
2007,09,22,15,47,13.90
2007,09,22,15,48,14.00
2007,09,22,15,49,14.10
2007,09,22,15,50,14.10
2007,09,22,15,51,14.20
2007,09,22,15,52,14.20
2007,09,22,15,53,14.30
2007,09,22,15,54,14.40
2007,09,22,15,55,14.50
2007,09,22,15,56,14.60
2007,09,22,15,57,14.70
2007,09,22,15,58,14.80
2007,09,22,15,59,14.80
2007,09,22,16,00,14.90
2007,09,22,16,01,15.00
2007,09,22,16,02,15.00
2007,09,22,16,03,15.00
2007,09,22,16,04,15.00
2007,09,22,16,05,15.20
2007,09,22,16,06,15.30
2007,09,22,16,07,15.40
2007,09,22,16,08,15.50
2007,09,22,16,09,15.50
2007,09,22,16,10,15.60
2007,09,22,16,11,15.60
2007,09,22,16,12,15.60
2007,09,22,16,13,15.70
2007,09,22,16,14,15.70
2007,09,22,16,15,15.70
2007,09,22,16,16,15.70
2007,09,22,16,17,15.70
2007,09,22,16,18,15.70
2007,09,22,16,19,15.70
2007,09,22,16,20,15.70
2007,09,22,16,21,15.70
2007,09,22,16,22,15.70
2007,09,22,16,23,15.70
2007,09,22,16,24,15.60
2007,09,22,16,25,15.50
2007,09,22,16,26,15.40
2007,09,22,16,27,15.30
2007,09,22,16,28,15.10
2007,09,22,16,29,15.00
2007,09,22,16,30,15.00
2007,09,22,16,31,15.00
2007,09,22,16,32,15.00
2007,09,22,16,33,15.00
2007,09,22,16,34,15.00
2007,09,22,16,35,15.00
2007,09,22,16,36,15.00
2007,09,22,16,37,15.00
2007,09,22,16,38,14.90
2007,09,22,16,39,14.90
2007,09,22,16,40,14.90
2007,09,22,16,41,14.80
2007,09,22,16,42,14.80
2007,09,22,16,43,14.70
2007,09,22,16,44,14.70
2007,09,22,16,45,14.70
2007,09,22,16,46,14.70
2007,09,22,16,47,14.60
2007,09,22,16,48,14.60
2007,09,22,16,49,14.60
2007,09,22,16,50,14.50
2007,09,22,16,51,14.40
2007,09,22,16,52,14.40
2007,09,22,16,53,14.40
2007,09,22,16,54,14.30
2007,09,22,16,55,14.30
2007,09,22,16,56,14.30
2007,09,22,16,57,14.30
2007,09,22,16,58,14.40
2007,09,22,16,59,14.40
2007,09,22,17,00,14.50
2007,09,22,17,01,14.70
2007,09,22,17,02,14.80
2007,09,22,17,03,15.00
2007,09,22,17,04,15.00
2007,09,22,17,05,15.10
2007,09,22,17,06,15.20
2007,09,22,17,07,15.30
2007,09,22,17,08,15.40
2007,09,22,17,09,15.40
2007,09,22,17,10,15.40
2007,09,22,17,11,15.40
2007,09,22,17,12,15.40
2007,09,22,17,13,15.40
2007,09,22,17,14,15.40
2007,09,22,17,15,15.40
2007,09,22,17,16,15.40
2007,09,22,17,17,15.40
2007,09,22,17,18,15.40
2007,09,22,17,19,15.40
2007,09,22,17,20,15.40
2007,09,22,17,21,15.50
2007,09,22,17,22,15.50
2007,09,22,17,23,15.60
2007,09,22,17,24,15.60
2007,09,22,17,25,15.60
2007,09,22,17,26,15.60
2007,09,22,17,27,15.60
2007,09,22,17,28,15.60